Regional Weather Roundup
Issued by NWS

Home | Current Version | Previous Version | Text Only | Print | Product List | Glossary On
Versions: 1 2 3 4 5 6 7 8 9 10 11 12 13 14 15 16 17 18 19 20 21 22 23 24 25 26 27
000
ASUS45 KBOU 112310
RWRCO

WEATHER ROUNDUP FOR COLORADO
NATIONAL WEATHER SERVICE DENVER/BOULDER CO
400 PM MST MON DEC 11 2017

NOTE: "FAIR" INDICATES FEW OR NO CLOUDS BELOW 12000 FEET WITH NO
SIGNIFICANT WEATHER AND/OR OBSTRUCTIONS TO VISIBILITY.

COZ001>005-013-030-031-120000-
...NORTHWEST COLORADO...

CITY           SKY/WX    TMP DP  RH WIND       PRES   REMARKS
CRAIG          FAIR      33  18  53 CALM      30.49F
HAYDEN         FAIR      35  15  44 CALM      30.51S
MEEKER         FAIR      51  -5   9 SW3       30.46S
RABBIT EARS PA FAIR      28  12  50 W8        30.54R WCI  20
STEAMBOAT SPGS FAIR      36  11  36 CALM      30.50R
WALDEN         FAIR      37  10  32 NW3       30.50S
$$

COZ006>008-011-120000-
...WEST CENTRAL VALLEYS...

CITY           SKY/WX    TMP DP  RH WIND       PRES   REMARKS
GRAND JUNCTION FAIR      48   3  15 CALM      30.44F
MONTROSE       FAIR      47  -3  12 CALM      30.46F
EAGLE          FAIR      43   9  24 CALM      30.53S
RIFLE          FAIR      50  -1  12 CALM      30.45S
DELTA          FAIR      51  -3  11 SE3       30.45S
NUCLA          FAIR      50  -6  10 CALM      30.47S
$$

COZ017>023-064>068-120000-
...SOUTHWEST COLORADO...

CITY           SKY/WX    TMP DP  RH WIND       PRES   REMARKS
DURANGO        FAIR      48   5  17 SW8       30.38S
CORTEZ         FAIR      45   2  17 CALM      30.41S
PAGOSA SPRINGS FAIR      54  -6   8 CALM      30.41R
TELLURIDE      FAIR      48  -2  12 W13       30.50S
WOLF CREEK PAS FAIR      37  -6  15 W5        30.62R
$$

COZ009-010-012-014-032>034-037-058>063-120000-
...CENTRAL COLORADO...

CITY           SKY/WX    TMP DP  RH WIND       PRES   REMARKS
ASPEN          FAIR      47   2  15 N5        30.48R
BUENA VISTA    FAIR      49   1  13 NW17G25   30.42R
COPPER MTN     NOT AVBL
BERTHOUD PASS  FAIR      21  10  63 NW36G41   30.52R WCI   2
COTTONWOOD PAS FAIR      46  -4  12 N6        30.48R
GUNNISON       FAIR      42   2  18 SW15      30.46F
KREMMLING      FAIR      34  18  51 CALM      30.54F
LEADVILLE      FAIR      37   4  25 N9G20     30.50R
MONARCH PASS   FAIR      32  -4  21 SW15      30.66R WCI  22
SALIDA         FAIR      55  -1  10 NW9       30.46R
SUNLIGHT       FAIR      32   3  29 NW7       30.62R WCI  26
WILKERSON PASS FAIR      34  -4  19 N6        30.55R WCI  29
$$

COZ069>075-120000-
...SAN LUIS VALLEY/SANGRE DE CRISTO MOUNTAINS...

CITY           SKY/WX    TMP DP  RH WIND       PRES   REMARKS
ALAMOSA        FAIR      49  -7   9 W3        30.40R
DEL NORTE      FAIR      46  -2  13 E5        30.42R
LA VETA PASS   FAIR      39  -2  17 SW13        N/A
SAGUACHE       FAIR      52   0  11 N12       30.42R
$$

COZ035-036-038>040-120000-
...NORTHERN COLORADO FRONT RANGE...

CITY           SKY/WX    TMP DP  RH WIND       PRES   REMARKS
DENVER INTL AP FAIR      50   6  16 NE15      30.38R
DMNS CITY PARK NOT AVBL
AURORA         PTCLDY    50   5  16 E10       30.39R
FRONT RANGE AP PTCLDY    52   7  16 NE8       30.39R
ERIE MUNI ARPT FAIR      56   1  10 E3        30.42R
BOULDER MUN AP FAIR      55   9  15 E3        30.37R
CENTENNIAL     FAIR      51   6  16 NE6       30.39R
BROOMFIELD     PTCLDY    55   5  13 NE6       30.39R
FORT COLLINS   FAIR      54  10  17 W5        30.37R
LONGMONT       FAIR      58   6  12 CALM      30.38R
$$

COZ041-046-047-076>085-087-088-120000-
...PIKES PEAK/PALMER DIVIDE AND SOUTHERN FOOTHILLS...

CITY           SKY/WX    TMP DP  RH WIND       PRES   REMARKS
COLO. SPRINGS  FAIR      52   2  13 E10       30.39R
A. F. ACADEMY  FAIR      50  -1  12 N13       30.39R
SCHRIEVER AFB  FAIR      49  -1  12 NE8       30.39R
CHEYENNE MTN   FAIR      47  -3  12 S3        30.35R
ELLICOTT         N/A    N/A N/A N/A NE12      30.37R
FALCON         FAIR      46  -2  13 NE8G16    30.42R
FORT CARSON    FAIR      54  -6   8 SE8       30.37R
LIMON          FAIR      48   6  18 N16       30.36R
MONUMENT HILL  FAIR      43   3  19 NE7       30.43R
CANON CITY     FAIR      57   3  11 E9        30.34R
WALSENBURG     FAIR      54   3  13 E9        30.35R
TRINIDAD       FAIR      54   2  12 E13       30.33R
$$

COZ042>045-048>051-090-091-120000-
...NORTHEAST COLORADO...

CITY           SKY/WX    TMP DP  RH WIND       PRES   REMARKS
GREELEY ARPT   FAIR      53  12  19 N21       30.35R
AKRON          FAIR      49   6  17 N23G32    30.36R
BURLINGTON     FAIR      52  10  18 N21G31    30.32R
WRAY           FAIR      52   5  15 N22G33    30.32R
YUMA           FAIR      48   9  20 N16G23    30.34R
STERLING       FAIR      50  10  20 N17       30.34R
HOLYOKE        FAIR      52   9  17 N18G24    30.34R
FORT MORGAN    FAIR      50   5  16 N12       30.36S
$$

COZ086-089-092>099-120000-
...SOUTHEAST COLORADO...

CITY           SKY/WX    TMP DP  RH WIND       PRES   REMARKS
PUEBLO         FAIR      56   2  11 E10       30.33R
LA JUNTA       FAIR      58   6  12 NE13      30.32R
LAMAR          FAIR      58   9  14 N14       30.30R
SPRINGFIELD      N/A     52   9  17 N12       30.32R
$$




USA.gov is the U.S. government's official web portal to all federal, state and local government web resources and services.